STARLINK-32318, 61864

Orbit data source: Space-Track

STARLINK-32318, 61864 is a payload satellite owned by SpaceX/Seattle (US) in LEO that was launched on Thu, 07 Nov 2024 UTC via an FALCON 9 launch vehicle from the Air Force Eastern Test Range (AFETR). Payload-class satellites include a variety of spacecraft equipped with specific instruments for various scientific and technological missions. These include communications satellites like Starlink; space stations such as the ISS; scientific satellites like the Hubble; Earth observation satellites from companies like Planet Labs, Umbra, and HawkEye 360; GPS; miniature CubeSats for education and research; and military/defense satellites.

Loading next visibility...
Identifier
61864, 2024-202V
Orbit
LEO
Country
Flag of USUS
Related business
Manufacturer
SpaceX/Seattle
Mission
Operational Commercial Communications
Bus & Motor
STARLINK V2M, Unknown motor
Mass
730 kg wet, ~700 kg dry
Launch date (UTC)
2024-11-07 (2 years ago)
Launch vehicle
FALCON 9
Launch site
Air Force Eastern Test Range (AFETR)
Object type
Payload
Rocket body
Debris
Shape & HBR
Box + 2 Pan, 17.7 m
Radar Cross Section
33.884 m², Large (>1 m²)

Expand to show TLE details & history
Last TLE update: 1 day ago

TLE from 1 day ago
0 STARLINK-32318
1 61864U 24202V   26266.15344671 -.00000314  00000-0 -18969-5 0  9996
2 61864  43.0036 203.1199 0001140 266.3043  93.7679 15.27573624105535
Epoch: 2026-09-23T03:40Z
TLE epoch observation values (Epoch: 2026-09-23T03:40:57.795Z)
Latitude
0.00001°
Longitude
145.87045°
Altitude
482.895 km
Speed
7.626 km/s
True Right ascension
13h 32m 28s
True Declination
0° 00' 00"
Sunlit
Object was in daylight at epoch
Visualization orbit readout
Latitude
Unknown
Longitude
Unknown
Altitude
Unknown
Speed
Unknown
Apparent Right ascension
Unknown
Apparent Declination
Unknown
Sunlit
N/A
Visualization observer readout
Local Sidereal Time
20:46:41
Azimuth
Unknown
Elevation
Unknown
Doppler factor
Unknown
Orbital elements
Apogee altitude
485.795 km
Perigee altitude
484.23 km
Semi-major axis
6,863.15 km
Eccentricity
0.00011
Inclination
43.0036°
RAAN
203.1199°
Arg. of periapsis
266.3043°
True anomaly
93.78094°
Mean anomaly
93.7679°
Eccentric anomaly
93.77442°
Mean motion
3.81731 °/min
Orbital period
94.31 mins
BSTAR
-0.0000018969
Loading maneuver chart data...
Computing Atmospheric mass density...
Loading historical data...
Loading historical data...
Loading historical data...
Loading historical data...
Loading historical data...
Loading historical data...
Loading historical data...

Documentation

Showing up to 5 results
|